651  
NZUS43 KILX 220010  
HWRCRS  
 
NWR HOURLY WEATHER ROUNDUP  
NATIONAL WEATHER SERVICE LINCOLN IL  
700 PM CDT TUE AUG 21 2018  
 
 
CITY SKY/WX TMP DP RH WIND PRES REMARKS
 
CHAMPAIGN FAIR 73 66 78 N10 29.98R  
LAWRENCEVILLE CLOUDY 73 64 73 NW14 29.95R  
PEORIA FAIR 76 66 71 NW9 30.01R  
SPRINGFIELD FAIR 77 68 73 NW5 30.01R  

 
 
 
CITY SKY/WX TMP DP RH WIND PRES REMARKS
 
BLOOMINGTON FAIR 75 64 68 NW9 30.00R  
DANVILLE FAIR 72 66 81 NW8 29.93R  
DECATUR FAIR 75 67 76 NW7 29.99R  
EFFINGHAM CLOUDY 73 68 82 NW8 30.00R  
FLORA CLOUDY 74 68 80 NW7 29.99R  
GALESBURG FAIR 72 63 73 NW9 30.05R  
JACKSONVILLE CLEAR 74 65 74 NW6 30.02S  
LACON MOCLDY 75 65 70 NW9 29.99R  
LA SALLE FAIR 77 66 69 NW14G20 30.00R  
LINCOLN FAIR 77 67 69 CALM 29.99S  
LITCHFIELD CLEAR 74 65 73 NW5 30.03R  
 
CITY SKY/WX TMP DP RH WIND PRES REMARKS
 
MACOMB PTCLDY 72 64 77 NW13 30.07R  
MATTOON FAIR 73 67 81 N9 29.96R  
MOLINE CLOUDY 73 63 70 NW16G25 30.04R  
OLNEY CLOUDY 72 69 92 NW6 29.98R  
PARIS MOCLDY 71 68 90 W5 29.96R  
PONTIAC FAIR 74 70 88 CALM 29.98S  
QUINCY CLEAR 77 62 59 N10 30.04S  
RANTOUL FAIR 74 65 73 NW7 29.97R  
ROBINSON CLOUDY 70 68 91 NW5 29.96R  
TAYLORVILLE FAIR 73 65 75 NW7 30.01R  
TERRE HAUTE CLOUDY 73 67 81 NW7 29.93S  

 
 
 
CITY SKY/WX TMP DP RH WIND PRES REMARKS
 
BURLINGTON MOCLDY 74 63 68 N7 30.05R  
CHICAGO MOCLDY 75 62 64 NW12 29.94R  
DES MOINES CLOUDY 71 60 68 N10 30.12R  
EVANSVILLE FAIR 75 66 73 NW12G20 29.95R  
INDIANAPOLIS MOCLDY 73 67 81 NW14G21 29.90R  
KANSAS CITY CLOUDY 75 66 73 NW7 30.12R  
MILWAUKEE MOCLDY 73 60 63 NW8G20 29.96R  
ST LOUIS PTCLDY 79 63 57 NW8G18 30.03R HX 80  

 
 
 
 
CLICK HERE TO GO TO PREVIOUS BULLETINS.

The Nexlab IL Page Main Text Page